Biloxi, MS

8:48 PM CDT on September 23, 2017 (GMT -0500)
Keesler Air Force Base

Weather History for KBIX - February, 2013

Change the Weather History Date:

Tuesday, February 5, 2013

  Actual Average Record
Temperature  
Mean Temperature 62 °F -  
Max Temperature 69 °F 60 °F 77 °F (1957)
Min Temperature 55 °F 42 °F 28 °F (2009)
Degree Days  
Heating Degree Days 3    
Growing Degree Days 12 (Base 50)    
Moisture  
Dew Point 57 °F    
Average Humidity 92    
Maximum Humidity 100    
Minimum Humidity 73    
Precipitation  
Precipitation 0.55 in - - ()
Sea Level Pressure  
Sea Level Pressure 29.99 in    
Wind  
Wind Speed 5 mph (East)    
Max Wind Speed 13 mph    
Max Gust Speed -    
Visibility 6 miles    
Events Fog , Rain    
Averages and records for this station are not official NWS values.
T = Trace of Precipitation, MM = Missing Value Source: NWS Daily Summary

Daily Weather History Graph

Daily Weather History Graph

Search for Another Location

Airport or City:

Trip Planner

Search our weather history database for the weather conditions in past years. The results will help you decide how hot, cold, wet, or windy it might be!

Date:

Astronomy

Feb. 05, 2013 Rise Set
Actual Time 6:43 AM CST 5:35 PM CST
Civil Twilight 6:18 AM CST 6:00 PM CST
Nautical Twilight 5:50 AM CST 6:29 PM CST
Astronomical Twilight 5:22 AM CST 6:57 PM CST
Moon 2:18 AM CST (2/5) 1:01 PM CST (2/5)
Length of Visible Light 11h 42m
Length of Day
10h 52m
Waning Crescent, 26% of the Moon is Illuminated
Feb 5
Waning Crescent
Feb 10
New
Feb 17
First Quarter
Feb 25
Full
Mar 4
Last Quarter

Hourly Weather History & Observations

Time (CST) Temp. Dew Point Humidity Pressure Visibility Wind Dir Wind Speed Gust Speed Precip Events Conditions
12:03 AM 57.2 °F 55.4 °F 94% 29.98 in 4.0 mi ENE 4.6 mph - N/A Rain Rain
12:23 AM 57.2 °F 55.4 °F 94% 29.98 in 4.0 mi NE 4.6 mph - N/A Rain Rain
12:28 AM 57.2 °F 55.4 °F 94% 29.97 in 4.0 mi East 5.8 mph - N/A Rain Light Rain
12:33 AM 57.2 °F 55.4 °F 94% 29.98 in 5.0 mi ENE 3.5 mph - N/A Rain Light Rain
12:38 AM 57.2 °F 55.4 °F 94% 29.98 in 6.0 mi ENE 3.5 mph - N/A Rain Light Rain
12:48 AM 57.2 °F 55.4 °F 94% 29.97 in 4.0 mi East 5.8 mph - N/A Rain Light Rain
12:53 AM 57.2 °F 55.4 °F 94% 29.98 in 4.0 mi ENE 4.6 mph - N/A Rain Light Rain
12:58 AM 57.2 °F 55.4 °F 94% 29.99 in 5.0 mi ENE 4.6 mph - 0.13 in Rain Light Rain
1:03 AM 57.2 °F 55.4 °F 94% 29.97 in 6.0 mi East 3.5 mph - N/A Rain Light Rain
1:13 AM 57.2 °F 55.4 °F 94% 29.97 in 8.0 mi East 4.6 mph - N/A Rain Light Rain
1:28 AM 57.2 °F 57.2 °F 100% 29.97 in 4.0 mi East 5.8 mph - N/A Rain Light Rain
1:33 AM 57.2 °F 57.2 °F 100% 29.97 in 2.5 mi East 8.1 mph - N/A Rain Heavy Rain
1:38 AM 57.2 °F 57.2 °F 100% 29.97 in 2.5 mi East 5.8 mph - N/A Rain Heavy Rain
1:43 AM 57.2 °F 55.4 °F 94% 29.97 in 3.0 mi East 6.9 mph - N/A Rain Heavy Rain
1:48 AM 57.2 °F 55.4 °F 94% 29.97 in 3.0 mi East 8.1 mph - N/A Rain Heavy Rain
1:53 AM 57.2 °F 55.4 °F 94% 29.96 in 2.5 mi East 6.9 mph - N/A Rain Heavy Rain
1:58 AM 57.0 °F 56.1 °F 97% 29.97 in 2.5 mi East 9.2 mph - 0.32 in Rain Heavy Rain
2:03 AM 57.2 °F 55.4 °F 94% 29.95 in 2.5 mi East 10.4 mph - N/A Rain Rain
2:08 AM 57.2 °F 55.4 °F 94% 29.95 in 3.0 mi East 9.2 mph - N/A Rain Light Rain
2:13 AM 57.2 °F 55.4 °F 94% 29.95 in 6.0 mi East 8.1 mph - N/A Rain Light Rain
2:18 AM 57.2 °F 55.4 °F 94% 29.95 in 9.0 mi East 10.4 mph - N/A Rain Light Rain
2:23 AM 57.2 °F 55.4 °F 94% 29.95 in 10.0 mi ENE 9.2 mph - N/A Rain Light Rain
2:43 AM 57.2 °F 55.4 °F 94% 29.95 in 10.0 mi East 8.1 mph - N/A Rain Light Rain
2:58 AM 57.0 °F 56.1 °F 97% 29.95 in 10.0 mi East 10.4 mph - 0.09 in Rain Light Rain
3:06 AM 57.2 °F 55.4 °F 94% 29.94 in 10.0 mi East 8.1 mph - N/A   Overcast
3:16 AM 57.2 °F 55.4 °F 94% 29.94 in 10.0 mi ENE 9.2 mph - N/A   Overcast
3:58 AM 57.2 °F 55.8 °F 95% 29.95 in 10.0 mi East 9.2 mph - 0.01 in   Overcast
4:18 AM 57.2 °F 55.4 °F 94% 29.94 in 10.0 mi East 8.1 mph - N/A   Overcast
4:23 AM 57.2 °F 55.4 °F 94% 29.94 in 10.0 mi East 10.4 mph - N/A   Overcast
4:33 AM 57.2 °F 55.4 °F 94% 29.94 in 10.0 mi East 10.4 mph - N/A   Overcast
4:58 AM 57.9 °F 55.6 °F 92% 29.95 in 10.0 mi East 8.1 mph - N/A   Overcast
5:08 AM 57.2 °F 55.4 °F 94% 29.94 in 10.0 mi East 6.9 mph - N/A   Overcast
5:33 AM 59.0 °F 55.4 °F 88% 29.95 in 10.0 mi East 6.9 mph - N/A   Overcast
5:58 AM 58.6 °F 56.1 °F 91% 29.97 in 10.0 mi ENE 5.8 mph - N/A   Overcast
6:03 AM 59.0 °F 55.4 °F 88% 29.96 in 10.0 mi East 6.9 mph - N/A Rain Light Rain
6:13 AM 59.0 °F 57.2 °F 94% 29.96 in 10.0 mi ENE 10.4 mph - N/A   Overcast
6:28 AM 59.0 °F 57.2 °F 94% 29.96 in 10.0 mi East 10.4 mph - N/A   Overcast
6:58 AM 58.6 °F 56.7 °F 93% 29.99 in 10.0 mi East 5.8 mph - 0.00 in   Overcast
7:28 AM 59.0 °F 57.2 °F 94% 29.98 in 10.0 mi ENE 9.2 mph - N/A   Overcast
7:58 AM 60.1 °F 57.7 °F 92% 30.00 in 10.0 mi East 10.4 mph - N/A   Overcast
8:58 AM 61.3 °F 58.8 °F 91% 30.01 in 10.0 mi East 12.7 mph - N/A   Overcast
9:23 AM 62.6 °F 59.0 °F 88% 30.00 in 10.0 mi East 12.7 mph - N/A   Overcast
9:58 AM 63.5 °F 59.4 °F 86% 30.02 in 10.0 mi East 10.4 mph - N/A   Overcast
10:08 AM 64.4 °F 59.0 °F 83% 30.01 in 10.0 mi ESE 9.2 mph - N/A   Overcast
10:58 AM 65.5 °F 59.7 °F 82% 30.02 in 10.0 mi NE 5.8 mph - N/A   Overcast
11:28 AM 64.4 °F 59.0 °F 83% 30.01 in 10.0 mi East 4.6 mph - N/A   Overcast
11:38 AM 64.4 °F 59.0 °F 83% 30.01 in 10.0 mi ENE 4.6 mph - N/A   Overcast
11:58 AM 64.8 °F 59.7 °F 84% 30.01 in 10.0 mi NE 4.6 mph - N/A   Overcast
12:28 PM 66.2 °F 60.8 °F 83% 29.99 in 10.0 mi NE 5.8 mph - N/A   Overcast
12:58 PM 67.5 °F 60.6 °F 79% 29.99 in 10.0 mi NE 5.8 mph - N/A   Overcast
1:55 PM 68.0 °F 60.8 °F 78% 29.97 in 10.0 mi Variable 2.3 mph - N/A   Overcast
1:58 PM 68.0 °F 60.8 °F 78% 29.98 in 10.0 mi Variable 2.3 mph - N/A   Overcast
2:08 PM 68.0 °F 60.8 °F 78% 29.97 in 10.0 mi East 3.5 mph - N/A   Overcast
2:13 PM 68.0 °F 60.8 °F 78% 29.97 in 10.0 mi NE 2.3 mph - N/A   Mostly Cloudy
2:18 PM 69.8 °F 60.8 °F 73% 29.96 in 10.0 mi Variable 2.3 mph - N/A   Mostly Cloudy
2:23 PM 69.8 °F 60.8 °F 73% 29.96 in 10.0 mi SSW 1.2 mph - N/A   Mostly Cloudy
2:33 PM 68.0 °F 60.8 °F 78% 29.96 in 10.0 mi South 4.6 mph - N/A   Overcast
2:38 PM 68.0 °F 60.8 °F 78% 29.96 in 10.0 mi Calm Calm - N/A   Mostly Cloudy
2:43 PM 68.0 °F 60.8 °F 78% 29.96 in 10.0 mi SSW 3.5 mph - N/A   Mostly Cloudy
2:58 PM 66.7 °F 60.8 °F 81% 29.97 in 10.0 mi SW 3.5 mph - N/A   Overcast
3:58 PM 65.7 °F 60.4 °F 83% 29.98 in 10.0 mi SSE 2.3 mph - N/A   Overcast
4:48 PM 66.2 °F 60.8 °F 83% 29.97 in 10.0 mi SSE 1.2 mph - N/A   Overcast
4:58 PM 65.5 °F 60.6 °F 84% 29.98 in 10.0 mi South 2.3 mph - N/A   Overcast
5:58 PM 63.1 °F 60.1 °F 90% 29.98 in 10.0 mi Calm Calm - N/A   Partly Cloudy
6:58 PM 61.0 °F 59.2 °F 94% 30.00 in 10.0 mi Calm Calm - N/A   Partly Cloudy
7:58 PM 60.1 °F 59.0 °F 96% 30.02 in 10.0 mi Calm Calm - N/A   Clear
8:58 PM 58.3 °F 57.4 °F 97% 30.03 in 10.0 mi Calm Calm - N/A   Clear
9:33 PM 57.2 °F 57.2 °F 100% 30.03 in 2.0 mi Calm Calm - N/A   Clear
9:38 PM 57.2 °F 57.2 °F 100% 30.03 in 3.0 mi Calm Calm - N/A   Clear
9:58 PM 57.6 °F 57.0 °F 98% 30.04 in 7.0 mi Calm Calm - N/A   Clear
10:18 PM 57.2 °F 57.2 °F 100% 30.03 in 1.0 mi Calm Calm - N/A   Clear
10:23 PM 57.2 °F 57.2 °F 100% 30.03 in 0.8 mi Calm Calm - N/A   Clear
10:28 PM 57.2 °F 57.2 °F 100% 30.03 in 1.5 mi Calm Calm - N/A   Clear
10:33 PM 57.2 °F 55.4 °F 94% 30.03 in 1.5 mi Calm Calm - N/A   Clear
10:38 PM 57.2 °F 55.4 °F 94% 30.03 in 0.8 mi Calm Calm - N/A   Clear
10:43 PM 57.2 °F 55.4 °F 94% 30.03 in 0.8 mi Calm Calm - N/A   Clear
10:48 PM 57.2 °F 55.4 °F 94% 30.03 in 1.2 mi Calm Calm - N/A   Clear
10:53 PM 55.4 °F 55.4 °F 100% 30.04 in 3.0 mi Calm Calm - N/A   Clear
10:58 PM 55.4 °F 55.4 °F 100% 30.05 in 1.2 mi Calm Calm - N/A   Clear
11:03 PM 55.4 °F 55.4 °F 100% 30.04 in 0.5 mi Calm Calm - N/A Fog Fog
11:08 PM 55.4 °F 55.4 °F 100% 30.04 in 0.8 mi Calm Calm - N/A   Clear
11:13 PM 55.4 °F 55.4 °F 100% 30.04 in 1.0 mi Calm Calm - N/A   Clear
11:18 PM 55.4 °F 55.4 °F 100% 30.04 in 1.5 mi Calm Calm - N/A   Clear
11:23 PM 55.4 °F 55.4 °F 100% 30.04 in 0.8 mi Calm Calm - N/A   Mist
11:28 PM 55.4 °F 55.4 °F 100% 30.04 in 0.2 mi Calm Calm - N/A Fog Fog
11:33 PM 55.4 °F 55.4 °F 100% 30.04 in 0.5 mi Calm Calm - N/A Fog Fog
11:38 PM 55.4 °F 55.4 °F 100% 30.04 in 1.2 mi Calm Calm - N/A   Mostly Cloudy
11:43 PM 57.2 °F 55.4 °F 94% 30.04 in 0.8 mi Calm Calm - N/A   Mist
11:48 PM 55.4 °F 55.4 °F 100% 30.05 in 0.5 mi Calm Calm - N/A Fog Fog
11:53 PM 55.4 °F 55.4 °F 100% 30.05 in 0.2 mi Calm Calm - N/A Fog Fog
11:58 PM 56.1 °F 55.6 °F 98% 30.06 in 0.2 mi Calm Calm - N/A Fog Fog